Powrót do katalogu

STARLINK-6114

AktywnyŁącznośćVLEO
NORAD 56116·PAYLOAD·🇺🇸 United States

Wystrzelony Mar 29, 2023 z Cape Canaveral Space Force Station

Loading…

Następne Przeloty (najbliższe 24 godziny)

TLE

ŚwieżeSource: CelesTrak SupGP

Epoka: Sep 15, 2026, 02:21 UTC

1 56116C 23046Z   26258.09840278  .00010555  00000+0  38231-3 0  2588
2 56116  43.0020 172.2947 0001692 269.5445 110.3783 15.27570972    14

Śledź STARLINK-6114 w czasie rzeczywistym z AllMySat

Download on the App Store